Jasper, TX

4:44 AM CDT on June 28, 2017 (GMT -0500)
Jasper County-Bell

Weather History for KJAS - December, 2011

Change the Weather History Date:

Tuesday, December 6, 2011

  Actual Average (KPOE) Record (KPOE)
Temperature  
Mean Temperature 42 °F -  
Max Temperature 46 °F 60 °F 80 °F (1998)
Min Temperature 38 °F 42 °F 30 °F (1997)
Degree Days  
Heating Degree Days 23    
Moisture  
Dew Point 40 °F    
Average Humidity 92    
Maximum Humidity 97    
Minimum Humidity 83    
Precipitation  
Precipitation 0.01 in - - ()
Sea Level Pressure  
Sea Level Pressure 30.23 in    
Wind  
Wind Speed 9 mph (NW)    
Max Wind Speed 14 mph    
Max Gust Speed 17 mph    
Visibility 6 miles    
Events Rain    
Averages and records for this station are not official NWS values.
T = Trace of Precipitation, MM = Missing Value Source: NWS Daily Summary

Daily Weather History Graph

Daily Weather History Graph

Search for Another Location

Airport or City:

Trip Planner

Search our weather history database for the weather conditions in past years. The results will help you decide how hot, cold, wet, or windy it might be!

Date:

Astronomy

Dec. 06, 2011 Rise Set
Actual Time 6:59 AM CST 5:14 PM CST
Civil Twilight 6:33 AM CST 5:40 PM CST
Nautical Twilight 6:03 AM CST 6:10 PM CST
Astronomical Twilight 5:34 AM CST 6:39 PM CST
Moon 2:34 PM CST (12/6) 3:27 AM CST (12/6)
Length of Visible Light 11h 07m
Length of Day
10h 14m
Waxing Gibbous, 87% of the Moon is Illuminated
Dec 6
Waxing Gibbous
Dec 10
Full
Dec 17
Last Quarter
Dec 24
New
Jan 1
First Quarter

Hourly Weather History & Observations

Time (CST) Temp. Windchill Dew Point Humidity Pressure Visibility Wind Dir Wind Speed Gust Speed Precip Events Conditions
12:15 AM 46.6 °F - 43.0 °F 87% 30.17 in 10.0 mi North 9.2 mph - N/A   Overcast
12:35 AM 46.4 °F 41.5 °F 43.0 °F 88% 30.17 in 10.0 mi North 10.4 mph - N/A   Overcast
12:55 AM 46.4 °F 41.9 °F 42.8 °F 87% 30.17 in 10.0 mi North 9.2 mph 16.1 mph N/A   Overcast
1:15 AM 46.4 °F 41.1 °F 42.8 °F 87% 30.18 in 10.0 mi North 11.5 mph - N/A   Overcast
1:35 AM 46.0 °F 40.2 °F 42.6 °F 88% 30.18 in 10.0 mi North 12.7 mph 16.1 mph N/A   Overcast
1:55 AM 45.5 °F 39.2 °F 42.4 °F 89% 30.18 in 7.0 mi North 13.8 mph - N/A   Overcast
2:15 AM 45.0 °F 41.2 °F 42.1 °F 90% 30.18 in 10.0 mi North 6.9 mph - N/A   Overcast
2:35 AM 45.0 °F 41.2 °F 41.7 °F 88% 30.19 in 10.0 mi North 6.9 mph - N/A   Overcast
2:55 AM 45.0 °F 41.2 °F 41.4 °F 87% 30.19 in 10.0 mi North 6.9 mph - N/A   Overcast
3:15 AM 45.0 °F 42.6 °F 41.2 °F 87% 30.19 in 10.0 mi North 4.6 mph - N/A   Overcast
3:35 AM 45.0 °F 41.2 °F 41.2 °F 87% 30.19 in 10.0 mi NNE 6.9 mph - N/A   Overcast
3:55 AM 44.8 °F 41.6 °F 41.5 °F 88% 30.18 in 10.0 mi North 5.8 mph - N/A   Overcast
4:15 AM 44.6 °F 40.7 °F 41.9 °F 90% 30.18 in 10.0 mi North 6.9 mph - N/A   Overcast
4:35 AM 44.6 °F 39.7 °F 42.1 °F 91% 30.17 in 10.0 mi North 9.2 mph - N/A   Overcast
4:55 AM 44.8 °F 41.6 °F 42.1 °F 90% 30.19 in 10.0 mi North 5.8 mph - N/A   Overcast
5:15 AM 44.8 °F 41.6 °F 42.1 °F 90% 30.20 in 10.0 mi North 5.8 mph - N/A   Overcast
5:35 AM 44.8 °F 41.6 °F 42.3 °F 91% 30.20 in 5.0 mi NNW 5.8 mph - N/A   Overcast
6:15 AM 44.1 °F 39.0 °F 42.8 °F 95% 30.22 in 3.0 mi NNW 9.2 mph - N/A   Light Drizzle
6:35 AM 43.7 °F 39.1 °F 42.6 °F 96% 30.23 in 4.0 mi NW 8.1 mph - N/A   Overcast
6:55 AM 43.3 °F 38.6 °F 42.1 °F 95% 30.24 in 3.0 mi NW 8.1 mph - N/A   Light Drizzle
7:15 AM 42.8 °F 37.5 °F 41.4 °F 95% 30.24 in 2.5 mi NNW 9.2 mph - N/A   Light Drizzle
7:35 AM 42.4 °F 36.5 °F 41.2 °F 95% 30.24 in 2.0 mi NW 10.4 mph - N/A   Light Drizzle
7:55 AM 41.9 °F 36.9 °F 41.0 °F 97% 30.24 in 2.0 mi NW 8.1 mph 16.1 mph N/A   Overcast
8:15 AM 41.9 °F 37.5 °F 40.8 °F 96% 30.25 in 1.8 mi NNW 6.9 mph - 0.01 in   Overcast
8:35 AM 41.5 °F 35.9 °F 40.5 °F 96% 30.26 in 2.0 mi NW 9.2 mph - 0.01 in   Overcast
8:55 AM 41.4 °F 36.2 °F 40.3 °F 96% 30.26 in 3.0 mi NNW 8.1 mph - 0.01 in   Overcast
9:15 AM 41.2 °F 35.0 °F 40.1 °F 96% 30.26 in 4.0 mi NNW 10.4 mph - N/A   Overcast
9:35 AM 41.0 °F 34.3 °F 39.7 °F 95% 30.26 in 4.0 mi NNW 11.5 mph - N/A   Overcast
9:55 AM 41.0 °F 35.8 °F 39.9 °F 96% 30.26 in 4.0 mi NW 8.1 mph - N/A   Overcast
10:15 AM 41.0 °F 35.2 °F 39.9 °F 96% 30.26 in 3.0 mi NNW 9.2 mph - N/A   Overcast
10:35 AM 41.0 °F 35.2 °F 40.1 °F 97% 30.24 in 3.0 mi NNW 9.2 mph - N/A   Overcast
11:15 AM 41.7 °F 36.7 °F 40.3 °F 95% 30.26 in 10.0 mi NNW 8.1 mph - N/A   Overcast
11:35 AM 42.3 °F 37.3 °F 40.3 °F 93% 30.26 in 10.0 mi NNW 8.1 mph - N/A   Overcast
11:55 AM 42.3 °F 36.3 °F 40.3 °F 93% 30.25 in 7.0 mi NW 10.4 mph - N/A   Overcast
12:15 PM 42.1 °F 37.1 °F 40.3 °F 93% 30.24 in 3.0 mi NW 8.1 mph - N/A Rain Light Rain
12:35 PM 41.9 °F 39.0 °F 39.9 °F 93% 30.25 in 5.0 mi NW 4.6 mph 9.2 mph N/A   Light Drizzle
12:55 PM 41.9 °F 37.5 °F 39.6 °F 91% 30.24 in 7.0 mi WNW 6.9 mph - N/A   Overcast
1:35 PM 41.5 °F 38.6 °F 39.4 °F 92% 30.22 in 5.0 mi WNW 4.6 mph - N/A   Overcast
1:55 PM 41.5 °F 36.4 °F 39.4 °F 92% 30.22 in 4.0 mi West 8.1 mph - N/A   Overcast
2:15 PM 41.0 °F 35.2 °F 39.0 °F 93% 30.23 in 2.5 mi WNW 9.2 mph - N/A   Light Drizzle
2:35 PM 40.6 °F 34.8 °F 39.0 °F 94% 30.22 in 1.8 mi NW 9.2 mph - N/A   Overcast
2:55 PM 40.3 °F 34.4 °F 38.8 °F 95% 30.21 in 1.8 mi WNW 9.2 mph 17.3 mph N/A   Overcast
3:15 PM 39.9 °F 32.9 °F 38.7 °F 95% 30.22 in 2.0 mi WNW 11.5 mph - N/A   Overcast
3:35 PM 39.6 °F 34.7 °F 38.3 °F 95% 30.22 in 2.0 mi WNW 6.9 mph - N/A   Overcast
3:55 PM 39.6 °F 33.5 °F 38.1 °F 95% 30.23 in 3.0 mi WNW 9.2 mph 17.3 mph N/A   Overcast
4:15 PM 39.2 °F 33.0 °F 37.6 °F 94% 30.23 in 3.0 mi WNW 9.2 mph - N/A   Overcast
4:35 PM 39.2 °F 33.6 °F 37.4 °F 93% 30.23 in 5.0 mi WNW 8.1 mph 16.1 mph N/A   Overcast
4:55 PM 39.2 °F 33.0 °F 37.2 °F 93% 30.23 in 7.0 mi NW 9.2 mph - N/A   Overcast
5:15 PM 39.4 °F 33.2 °F 37.2 °F 92% 30.24 in 10.0 mi WNW 9.2 mph - N/A   Overcast
5:35 PM 39.2 °F 32.5 °F 37.0 °F 92% 30.25 in 7.0 mi WNW 10.4 mph - N/A   Overcast
5:55 PM 39.2 °F 32.5 °F 36.9 °F 91% 30.25 in 7.0 mi WNW 10.4 mph - N/A   Overcast
6:15 PM 38.7 °F 31.8 °F 36.5 °F 92% 30.25 in 7.0 mi WNW 10.4 mph - N/A   Overcast
6:35 PM 38.5 °F 31.6 °F 36.0 °F 91% 30.26 in 7.0 mi WNW 10.4 mph - N/A   Overcast
6:55 PM 38.5 °F 31.6 °F 35.2 °F 88% 30.28 in 7.0 mi WNW 10.4 mph - N/A   Overcast
7:15 PM 38.5 °F 32.7 °F 34.9 °F 87% 30.27 in 7.0 mi WNW 8.1 mph - N/A   Overcast
7:35 PM 38.5 °F 34.1 °F 34.9 °F 87% 30.28 in 10.0 mi WNW 5.8 mph - N/A   Overcast
7:55 PM 38.5 °F 34.1 °F 34.5 °F 86% 30.28 in 10.0 mi WNW 5.8 mph - N/A   Overcast
8:15 PM 38.5 °F 31.6 °F 34.0 °F 84% 30.29 in 10.0 mi WNW 10.4 mph - N/A   Overcast
8:35 PM 38.3 °F 31.9 °F 33.6 °F 83% 30.29 in 10.0 mi NW 9.2 mph - N/A   Overcast
8:55 PM 38.3 °F 33.2 °F 33.1 °F 81% 30.29 in 10.0 mi WNW 6.9 mph - N/A   Overcast
9:15 PM 38.3 °F 32.5 °F 32.9 °F 81% 30.30 in 10.0 mi WNW 8.1 mph - N/A   Overcast
9:35 PM 38.3 °F 31.9 °F 32.5 °F 80% 30.31 in 10.0 mi WNW 9.2 mph - N/A   Overcast
9:55 PM 38.3 °F 33.2 °F 32.2 °F 79% 30.31 in 10.0 mi WNW 6.9 mph - N/A   Overcast
10:15 PM 37.9 °F 32.7 °F 32.4 °F 80% 30.31 in 10.0 mi West 6.9 mph - N/A   Overcast
10:35 PM 37.9 °F 33.5 °F 32.4 °F 80% 30.31 in 10.0 mi WNW 5.8 mph - N/A   Overcast
10:55 PM 37.8 °F 31.3 °F 32.0 °F 80% 30.31 in 10.0 mi WNW 9.2 mph - N/A   Overcast
11:15 PM 37.6 °F 31.6 °F 32.0 °F 80% 30.32 in 10.0 mi WNW 8.1 mph - N/A   Overcast
11:35 PM 37.4 °F 30.8 °F 31.8 °F 80% 30.31 in 10.0 mi WNW 9.2 mph - N/A   Overcast
11:55 PM 37.4 °F 32.8 °F 31.6 °F 80% 30.31 in 10.0 mi WNW 5.8 mph 16.1 mph N/A   Overcast